ONEWEB-0054 (45158 NORAD) Tracking and Keplerian Element Data

This shows tracking and keplerian element data for the satellite.

Feedback or suggestion? Click here.




ElementValue
Catalog45158
NameONEWEB-0054
Epoch Orbit3871
Epoch Day298.25001157
Epoch Year2020
RAAN86.2507
Inclination87.9385
Eccentricity0.0022192
Argument of Perigee131.175
Mean Anonmoly278.8162
Mean Motion13.31365518
Decay Rate1.4E-07
L11 45158U 20008AD 20298.25001157 .00000014 00000-0 00000+0 0 9999
L22 45158 87.9385 86.2507 0022192 131.1750 278.8162 13.31365518 38716

Live tracking and technical data element details for ONEWEB-0054 (NORAD 45158). ONEWEB-0054 can be tracked NOW for your location showing map with azimuth and elevation plus other details from your city location.

Track the satellite on the map from your city or location and see movement details for azimuth, elevation, latitude, longitude, range, height, and movement on the map or in text.







IsCatalogInMostPopularTable: catalog: 45158, numindb: 50
Update: records affected: 1



GetName: 45158 ONEWEB-0054

Hit Count: updated at: Sun, 25 Oct 2020 00:13:06 GMT